Temp
81 83 86 86 79 77 66 68 72 69 69 70 73 72 70 70 67 62 77 81 83 83 84 84 80 80 80 80 79 79 79 79 79 79 79 79 79 79 79 79 79 80 81 81 81 81 81 81 81
84 82 87 84 76 69 67 70 69 72 72 72 72 70 68 66 72 75 77 82 84 83 83 84 79 80 80 80 79 79 79 79 79 79 79 79 79 79 79 79 80 81 81 81 81 80 80 80 80
83 85 85 80 73 70 69 71 73 73 74 72 72 74 71 71 76 77 81 82 83 83 84 84 79 80 80 80 79 79 79 79 79 79 79 79 79 79 79 79 80 81 81 81 80 80 79 79 79
87 87 83 78 70 72 72 75 75 72 72 75 76 71 76 83 79 81 81 83 83 84 86 81 79 79 80 80 79 79 79 79 79 79 79 79 79 78 78 79 79 79 80 80 79 79 78 78 78
87 85 78 73 70 72 74 78 76 72 73 75 76 73 74 79 84 82 82 84 83 84 86 86 79 79 80 80 79 79 79 79 79 79 79 78 78 78 78 78 79 79 79 79 78 78 77 77 77
84 83 76 72 70 73 75 77 77 76 76 78 74 76 74 81 81 82 85 85 87 85 86 86 80 79 79 79 79 78 78 78 78 78 78 78 77 77 78 78 78 78 78 78 77 77 77 76 76
81 81 74 70 71 72 75 79 75 76 77 78 81 75 72 77 82 85 84 85 83 87 86 87 87 82 79 79 78 78 78 78 77 77 77 77 77 77 77 77 77 77 77 77 76 76 76 75 75
83 82 71 72 71 74 78 77 81 79 79 84 85 76 72 80 82 84 85 85 83 85 86 85 86 87 87 86 78 78 78 77 76 76 76 76 76 77 77 77 76 77 76 75 75 75 75 74 74
81 79 74 73 71 77 76 77 79 83 81 82 85 82 84 83 82 81 81 80 82 82 82 85 85 84 85 87 83 79 78 77 76 76 74 77 82 82 82 76 74 75 74 74 74 74 73 73 75
83 78 75 81 80 79 80 79 81 79 80 79 80 81 83 81 81 81 80 79 80 80 82 85 82 85 85 86 84 82 82 81 79 79 78 81 79 79 80 76 73 73 73 73 73 73 73 76 80
78 79 80 82 83 83 81 77 82 80 77 83 81 79 80 80 79 81 82 83 82 83 83 84 80 81 84 83 81 81 79 79 78 77 78 76 78 78 80 80 80 78 75 79 78 78 79 76 77
77 81 81 82 80 78 78 82 78 82 86 90 88 83 81 79 79 80 81 82 83 82 81 80 81 78 77 81 82 80 80 79 80 78 76 77 78 76 76 78 77 77 77 75 76 76 74 74 75
78 82 81 83 78 80 80 79 81 81 87 88 88 81 80 81 81 83 83 82 80 78 78 78 77 76 76 76 77 78 78 79 77 77 76 78 77 74 76 75 76 76 76 76 74 74 73 73 74
79 79 81 81 79 79 80 79 80 85 87 84 83 80 81 81 81 81 79 76 76 75 74 75 74 73 72 74 75 74 76 75 77 77 76 75 76 74 76 75 75 75 74 74 72 71 71 71 72
78 79 82 79 80 80 80 75 76 84 84 82 81 82 81 81 82 80 79 75 74 71 70 71 70 70 70 72 73 76 77 77 77 76 74 74 74 73 72 74 73 73 71 69 70 69 70 70 70
75 75 73 77 80 76 78 75 77 78 81 80 80 81 79 79 79 78 75 71 70 70 68 69 70 68 70 71 74 75 74 76 75 76 77 74 73 72 72 73 71 70 70 69 68 67 67 66 67
73 70 70 73 76 75 75 71 72 75 77 80 79 78 78 75 73 72 72 69 65 65 66 66 68 70 70 68 65 68 70 73 72 74 75 72 72 72 70 71 70 67 68 67 66 65 64 64 65
66 68 69 68 74 73 71 67 71 73 75 73 74 76 74 72 71 70 70 69 68 67 65 66 67 66 66 66 63 64 63 67 70 71 74 72 72 70 69 69 67 66 66 66 65 61 63 61 59
70 68 67 71 72 69 65 66 67 71 72 72 74 74 71 69 69 69 69 69 68 66 66 65 64 63 63 60 58 59 65 67 68 70 70 70 70 69 67 68 67 66 64 62 62 62 56 56 60
71 69 69 71 72 71 66 66 67 68 66 67 68 72 71 67 67 67 67 65 68 66 66 66 63 59 59 59 61 65 68 69 66 67 67 68 67 67 67 64 64 63 63 61 60 59 56 58 59
69 68 68 67 70 69 68 66 65 68 68 68 69 70 69 67 64 65 64 63 66 64 65 64 66 61 60 62 62 63 64 65 68 67 67 67 65 65 64 63 63 62 62 60 59 59 55 51 59
66 72 70 68 67 62 65 59 64 64 66 65 65 67 67 66 67 66 66 63 62 62 63 61 62 61 61 62 62 60 60 61 63 65 65 65 65 64 63 62 61 61 59 59 60 59 54 54 51
68 70 67 66 65 62 62 61 64 64 64 63 63 62 65 66 66 66 65 63 62 62 61 61 60 60 62 61 61 62 61 61 64 63 61 63 63 63 63 61 61 60 61 59 56 56 57 57 52
71 70 66 63 63 57 58 59 64 64 61 62 60 60 61 61 57 57 57 57 57 59 59 59 58 57 58 60 60 59 59 59 61 60 61 63 64 63 62 61 60 60 60 59 59 58 57 56 55
72 66 57 55 55 53 57 56 61 62 64 65 57 55 53 54 54 53 53 55 59 62 63 64 61 57 59 61 61 60 59 59 58 58 60 58 61 61 61 59 59 60 59 59 58 58 58 55 53
66 62 57 46 48 54 57 54 61 61 62 61 56 53 52 52 53 56 60 63 64 62 61 61 60 59 59 59 59 60 60 61 60 60 59 60 60 61 60 60 60 60 60 60 60 60 56 54 55
63 61 61 54 52 52 58 57 60 60 59 58 55 54 53 55 59 60 61 61 60 59 58 58 58 59 59 58 59 59 59 58 58 58 58 60 59 61 60 60 59 60 60 59 58 59 54 53 54
66 65 56 59 46 45 54 53 57 56 57 56 55 55 56 59 60 59 59 58 57 56 59 58 58 57 57 58 59 59 58 59 59 59 58 58 59 59 59 59 59 59 60 60 59 60 59 56 52
64 61 58 56 54 47 46 54 59 58 62 58 56 57 58 58 58 59 58 57 56 59 59 57 57 57 57 58 58 58 59 59 59 59 59 59 58 59 59 59 59 59 59 59 58 58 59 55 54
64 59 57 52 49 53 49 50 57 58 60 57 56 56 57 57 57 56 54 57 57 57 57 57 56 57 57 58 58 58 58 59 59 59 59 59 59 60 59 59 59 59 59 59 58 58 55 52 52
MSLP
1012.12 1012.13 1012.15 1011.55 1011.31 1010.94 1011.37 1012.14 1012.73 1013.21 1013.82 1014.60 1014.57 1014.50 1014.38 1014.43 1014.89 1016.03 1016.10 1015.99 1015.98 1016.15 1016.39 1016.61 1016.80 1016.96 1017.08 1016.98 1016.81 1016.86 1016.99 1017.11 1017.38 1017.34 1017.56 1017.75 1017.86 1017.83 1017.89 1017.89 1018.01 1017.93 1017.87 1017.82 1017.76 1017.74 1017.72 1017.62 1017.46
1012.06 1012.09 1011.65 1011.01 1010.52 1010.50 1011.49 1012.32 1012.60 1013.36 1014.16 1014.74 1014.90 1014.89 1015.12 1014.40 1014.98 1015.39 1015.73 1015.87 1015.78 1016.10 1016.42 1016.54 1017.11 1017.02 1016.99 1016.93 1017.07 1017.13 1017.22 1017.26 1017.41 1017.57 1017.68 1017.84 1018.01 1018.07 1018.11 1018.07 1018.04 1018.09 1018.00 1017.91 1017.89 1017.84 1017.82 1017.73 1017.56
1011.91 1011.80 1011.00 1010.57 1010.79 1010.54 1011.14 1012.19 1012.76 1013.62 1014.41 1014.62 1014.61 1015.03 1015.08 1014.27 1014.71 1015.18 1015.25 1015.69 1015.87 1016.09 1016.49 1016.53 1017.10 1017.16 1017.08 1017.15 1017.09 1017.28 1017.44 1017.53 1017.59 1017.84 1018.00 1018.17 1018.26 1018.33 1018.38 1018.34 1018.34 1018.35 1018.30 1018.28 1018.18 1018.12 1018.12 1018.05 1017.83
1011.46 1011.36 1011.34 1010.56 1010.50 1010.97 1011.38 1012.07 1012.72 1013.45 1014.29 1014.39 1014.21 1014.15 1014.53 1014.00 1014.21 1014.57 1015.25 1015.54 1015.96 1016.21 1016.47 1016.61 1017.19 1017.05 1017.16 1017.23 1017.29 1017.36 1017.75 1017.83 1018.00 1018.06 1018.37 1018.45 1018.64 1018.57 1018.66 1018.70 1018.73 1018.80 1018.75 1018.63 1018.54 1018.45 1018.37 1018.30 1018.05
1011.43 1010.91 1010.41 1010.41 1010.67 1011.11 1011.82 1012.11 1012.59 1012.88 1013.18 1013.43 1013.93 1013.51 1013.73 1014.26 1014.33 1014.84 1015.25 1015.66 1015.81 1016.12 1016.41 1016.80 1017.29 1017.10 1017.10 1017.35 1017.53 1017.71 1017.66 1018.08 1018.31 1018.49 1018.57 1018.80 1018.81 1018.87 1018.84 1018.98 1019.07 1019.04 1019.15 1018.95 1018.88 1018.76 1018.57 1018.41 1018.21
1010.81 1010.75 1010.08 1010.13 1010.56 1011.07 1011.78 1012.12 1012.34 1012.46 1012.67 1012.70 1013.34 1013.31 1014.00 1014.56 1014.62 1014.96 1015.20 1015.54 1015.64 1016.12 1016.39 1016.89 1017.34 1017.37 1017.37 1017.61 1017.80 1017.92 1018.08 1018.21 1018.31 1018.57 1018.87 1018.85 1019.11 1019.02 1019.13 1019.28 1019.33 1019.36 1019.31 1019.38 1019.14 1018.94 1018.87 1018.59 1018.38
1010.47 1010.14 1010.02 1010.50 1010.48 1010.71 1011.24 1012.06 1012.02 1011.94 1011.83 1011.83 1012.18 1012.62 1014.12 1014.42 1014.67 1015.08 1015.57 1015.93 1016.09 1016.14 1016.43 1016.70 1016.98 1017.54 1017.63 1017.82 1017.99 1018.10 1018.23 1018.42 1018.59 1018.69 1018.99 1019.10 1019.24 1019.32 1019.41 1019.38 1019.51 1019.52 1019.34 1019.42 1019.34 1019.07 1018.98 1018.73 1018.43
1010.67 1010.20 1010.09 1010.51 1010.31 1010.20 1010.85 1011.63 1011.55 1011.67 1011.38 1011.70 1011.86 1012.01 1013.04 1013.76 1014.70 1015.30 1015.76 1016.10 1016.43 1016.49 1016.57 1016.81 1017.13 1017.26 1017.53 1017.94 1018.16 1018.25 1018.39 1018.66 1018.85 1019.06 1019.12 1019.19 1019.49 1019.47 1019.48 1019.49 1019.65 1019.61 1019.68 1019.52 1019.47 1019.22 1019.09 1018.82 1018.54
1010.80 1010.04 1009.61 1009.91 1010.15 1009.99 1010.68 1010.86 1011.51 1011.48 1011.21 1011.38 1011.58 1011.81 1012.09 1013.51 1014.66 1015.20 1015.68 1016.18 1016.46 1016.78 1016.97 1016.94 1017.22 1017.59 1017.59 1017.86 1018.23 1018.36 1018.42 1018.78 1018.99 1019.29 1019.48 1019.49 1019.41 1019.48 1019.42 1019.77 1019.79 1019.79 1019.74 1019.51 1019.33 1019.15 1018.95 1018.68 1018.24
1010.22 1009.82 1009.47 1009.44 1009.69 1009.71 1010.00 1010.20 1010.48 1010.92 1010.95 1010.92 1011.38 1012.03 1012.58 1013.62 1014.26 1014.54 1014.91 1015.36 1015.84 1016.30 1016.89 1017.11 1017.49 1017.34 1017.57 1017.82 1018.25 1018.49 1018.85 1019.10 1019.44 1019.52 1019.55 1019.42 1019.60 1019.70 1019.68 1019.84 1019.94 1019.79 1019.79 1019.53 1019.45 1019.22 1018.92 1018.35 1017.88
1010.17 1009.39 1009.30 1009.18 1009.51 1009.70 1009.76 1009.98 1010.11 1010.01 1010.12 1009.62 1009.92 1011.60 1012.69 1013.23 1013.79 1014.11 1014.59 1014.93 1015.42 1016.16 1016.91 1017.26 1017.78 1017.95 1017.79 1018.20 1018.68 1018.98 1019.38 1019.52 1019.62 1019.81 1019.71 1019.86 1019.76 1019.78 1019.66 1019.59 1019.54 1019.55 1019.58 1019.22 1019.08 1018.77 1018.50 1018.49 1018.09
1009.86 1009.34 1009.21 1009.22 1009.43 1009.69 1009.62 1009.48 1009.52 1009.24 1008.25 1008.54 1009.78 1011.21 1012.23 1012.58 1013.08 1013.56 1014.48 1015.29 1015.88 1016.76 1017.23 1017.81 1018.07 1018.39 1018.63 1018.76 1018.96 1019.30 1019.39 1019.72 1019.80 1020.00 1020.16 1019.96 1019.66 1019.77 1019.74 1019.60 1019.64 1019.56 1019.44 1019.41 1019.18 1018.85 1018.79 1018.33 1017.94
1009.65 1009.10 1009.18 1009.11 1009.21 1009.41 1009.65 1009.42 1009.23 1008.83 1008.73 1009.06 1009.82 1011.19 1011.74 1012.09 1012.78 1013.93 1014.50 1015.64 1016.49 1017.13 1017.97 1018.43 1018.81 1019.20 1019.31 1019.25 1019.52 1019.70 1019.85 1019.90 1020.18 1020.26 1020.35 1020.11 1019.91 1019.96 1019.80 1019.92 1019.76 1019.66 1019.51 1019.31 1019.15 1018.88 1018.67 1018.16 1017.59
1009.73 1009.41 1008.95 1009.06 1009.21 1009.26 1009.07 1009.39 1009.66 1008.57 1008.99 1009.43 1009.95 1010.52 1011.19 1011.90 1012.56 1014.00 1014.98 1015.75 1016.49 1017.59 1018.43 1018.96 1019.34 1019.61 1019.99 1019.97 1020.07 1020.28 1020.16 1020.28 1020.21 1020.22 1020.35 1020.33 1020.19 1020.21 1020.06 1019.95 1019.80 1019.68 1019.66 1019.49 1019.32 1019.01 1018.68 1018.10 1017.42
1009.79 1009.16 1008.73 1009.24 1009.37 1009.28 1009.45 1009.42 1009.18 1009.28 1009.42 1009.67 1009.74 1010.14 1011.21 1012.02 1013.27 1014.19 1014.76 1016.28 1017.53 1018.02 1018.26 1019.31 1020.04 1020.23 1020.47 1020.35 1020.44 1020.42 1020.19 1020.30 1020.10 1020.08 1020.34 1020.48 1020.48 1020.51 1020.50 1020.18 1020.06 1020.08 1020.05 1019.86 1019.48 1019.22 1018.67 1017.97 1017.31
1009.68 1009.67 1009.13 1009.70 1009.54 1009.97 1009.97 1009.16 1009.79 1010.13 1009.82 1009.79 1010.03 1010.57 1011.67 1012.96 1014.09 1014.63 1015.80 1016.96 1017.98 1019.59 1020.08 1020.24 1020.45 1020.80 1020.87 1021.01 1020.78 1020.84 1020.91 1020.65 1020.42 1020.30 1020.47 1020.82 1020.89 1020.78 1020.55 1020.33 1020.37 1020.49 1020.23 1019.88 1019.58 1019.23 1018.62 1018.02 1017.41
1010.07 1009.58 1009.67 1009.88 1010.44 1010.22 1010.38 1010.40 1010.95 1010.87 1010.36 1010.17 1010.81 1011.30 1012.20 1013.60 1014.55 1015.30 1015.99 1017.17 1017.96 1018.61 1020.31 1020.99 1021.35 1021.59 1021.75 1021.96 1022.03 1021.36 1021.23 1021.12 1021.08 1021.08 1020.88 1021.04 1021.00 1020.82 1020.67 1020.45 1020.47 1020.65 1020.17 1019.88 1019.59 1019.18 1018.80 1017.99 1017.38
1010.16 1009.94 1010.04 1010.22 1010.70 1010.88 1011.04 1011.75 1011.88 1011.64 1011.21 1011.50 1011.70 1012.06 1013.14 1013.92 1014.85 1016.53 1017.03 1017.77 1018.59 1019.54 1020.61 1021.41 1022.11 1022.37 1022.65 1022.60 1022.66 1022.17 1021.84 1020.88 1021.33 1020.98 1020.77 1021.09 1021.02 1021.11 1020.95 1020.59 1020.68 1020.54 1019.97 1019.71 1019.57 1019.31 1018.79 1018.52 1017.84
1010.61 1010.47 1010.42 1010.58 1011.16 1011.44 1012.01 1012.25 1012.55 1012.50 1012.26 1012.32 1012.28 1012.63 1013.95 1014.78 1015.86 1016.72 1017.59 1018.57 1019.34 1020.32 1021.01 1021.59 1021.94 1022.24 1022.70 1022.97 1022.84 1022.44 1022.38 1021.39 1020.75 1020.74 1021.02 1021.04 1021.00 1021.30 1020.96 1020.57 1020.40 1020.33 1020.01 1019.91 1019.61 1019.17 1018.97 1018.48 1017.93
1010.66 1010.58 1010.60 1010.87 1011.27 1011.43 1012.02 1012.16 1012.72 1013.10 1013.46 1013.56 1013.45 1013.22 1014.47 1015.58 1016.71 1017.64 1018.59 1019.63 1020.13 1020.68 1021.14 1021.18 1021.34 1021.25 1022.46 1022.98 1023.09 1022.56 1022.97 1021.83 1021.84 1020.66 1020.94 1020.94 1021.28 1021.36 1021.09 1020.92 1020.31 1020.29 1020.07 1019.72 1019.58 1019.19 1018.75 1018.26 1017.99
1010.87 1010.86 1011.06 1011.30 1011.43 1011.80 1011.92 1011.94 1012.60 1013.43 1013.90 1014.19 1014.27 1014.59 1015.38 1016.42 1017.47 1018.25 1019.22 1020.03 1020.58 1021.06 1020.88 1020.97 1021.17 1020.87 1020.83 1022.21 1022.39 1022.33 1022.49 1021.94 1021.16 1020.89 1020.81 1021.12 1021.40 1021.30 1020.97 1020.95 1020.48 1020.15 1019.99 1019.62 1019.54 1019.00 1018.87 1018.55 1017.83
1011.03 1011.36 1011.47 1011.49 1011.58 1011.60 1012.36 1011.77 1012.58 1013.58 1014.11 1014.73 1015.33 1015.82 1016.52 1017.27 1017.92 1018.58 1019.35 1020.17 1020.71 1021.28 1021.30 1021.76 1021.41 1021.73 1021.56 1021.90 1022.00 1022.26 1022.37 1021.57 1021.41 1021.18 1021.49 1021.46 1021.17 1021.21 1021.06 1020.98 1020.57 1020.06 1020.01 1019.65 1019.20 1019.00 1018.94 1018.53 1017.98
1011.82 1011.86 1011.99 1011.93 1011.81 1012.19 1012.44 1012.58 1012.77 1013.65 1014.11 1015.24 1016.36 1017.15 1017.66 1018.22 1018.79 1019.37 1020.09 1020.75 1021.12 1021.37 1020.79 1020.63 1021.16 1021.60 1021.72 1022.25 1022.04 1022.04 1022.19 1022.00 1021.63 1021.69 1021.63 1021.29 1021.02 1020.96 1020.80 1020.67 1020.30 1020.02 1019.80 1019.42 1019.29 1018.96 1018.55 1018.18 1018.08
1012.12 1012.17 1012.28 1012.46 1012.38 1012.14 1012.96 1013.31 1012.71 1013.92 1015.01 1015.97 1017.44 1018.15 1018.68 1019.25 1020.03 1020.66 1021.23 1021.58 1021.93 1021.97 1022.22 1022.09 1022.55 1022.50 1022.21 1022.54 1022.50 1022.60 1022.40 1021.92 1021.51 1021.58 1021.38 1020.85 1020.50 1020.47 1020.37 1020.43 1020.17 1020.19 1019.84 1019.33 1019.02 1018.64 1018.28 1017.97 1017.67
1012.20 1012.27 1012.00 1012.11 1012.28 1012.66 1013.64 1013.91 1013.75 1014.89 1015.70 1016.48 1018.26 1019.36 1020.12 1020.67 1021.20 1021.64 1021.88 1022.09 1022.09 1022.12 1022.29 1022.30 1022.58 1022.52 1022.61 1022.49 1022.40 1022.46 1022.13 1021.99 1021.72 1021.70 1021.25 1021.03 1020.35 1020.30 1020.31 1020.37 1020.31 1019.96 1019.61 1019.09 1018.87 1018.41 1018.10 1017.97 1017.63
1012.92 1013.42 1013.28 1012.95 1013.17 1013.21 1014.00 1013.80 1014.47 1015.80 1016.77 1017.79 1019.27 1020.41 1021.39 1021.82 1022.14 1022.31 1022.51 1022.54 1022.49 1022.82 1022.88 1022.71 1022.44 1022.58 1022.83 1022.84 1022.79 1022.31 1021.98 1021.70 1021.63 1021.55 1021.27 1020.89 1021.07 1020.64 1020.41 1020.28 1020.02 1019.56 1019.14 1018.67 1018.37 1018.18 1018.15 1018.03 1017.46
1013.71 1013.97 1014.86 1014.50 1014.80 1014.24 1013.77 1014.52 1015.38 1016.34 1017.41 1018.65 1019.86 1020.95 1021.78 1022.33 1022.44 1022.73 1023.18 1023.38 1023.42 1023.45 1023.51 1023.20 1022.91 1022.93 1022.90 1022.62 1022.24 1021.99 1021.84 1021.93 1021.81 1021.71 1021.64 1021.31 1021.02 1020.49 1020.22 1019.93 1019.55 1019.15 1018.86 1018.62 1018.47 1018.21 1018.17 1017.92 1017.43
1014.26 1015.14 1015.11 1015.02 1014.83 1014.36 1014.10 1014.79 1014.94 1016.34 1017.47 1018.92 1020.14 1021.13 1021.99 1022.36 1022.73 1023.24 1023.65 1023.89 1024.19 1023.96 1023.89 1023.49 1023.33 1023.07 1022.94 1022.70 1022.43 1022.20 1022.19 1022.11 1021.91 1021.65 1021.31 1021.03 1020.63 1020.25 1019.83 1019.45 1019.15 1018.93 1018.73 1018.55 1018.40 1017.94 1017.90 1017.60 1017.60
1015.19 1015.46 1016.11 1016.55 1016.39 1015.76 1015.16 1014.99 1016.25 1016.90 1017.54 1018.95 1020.44 1021.42 1022.19 1022.88 1023.34 1023.51 1023.87 1024.18 1024.14 1024.22 1024.06 1023.63 1023.55 1023.34 1023.02 1022.81 1022.56 1022.34 1022.02 1021.83 1021.61 1021.26 1020.84 1020.48 1020.11 1019.75 1019.43 1019.14 1018.91 1018.75 1018.56 1018.50 1018.22 1017.88 1017.68 1017.62 1017.46
1016.13 1016.51 1016.88 1016.96 1017.04 1017.09 1017.14 1016.65 1017.73 1017.83 1018.27 1019.67 1020.99 1022.06 1022.85 1023.44 1023.90 1024.11 1024.17 1023.70 1024.20 1024.16 1024.10 1023.95 1023.68 1023.26 1023.07 1022.84 1022.53 1022.16 1021.84 1021.63 1021.22 1020.86 1020.54 1020.25 1019.79 1019.36 1019.11 1018.91 1018.78 1018.53 1018.34 1018.36 1018.11 1017.73 1017.77 1017.66 1017.44
Wind_Speed
2 2 1 2 2 2 3 3 2 5 2 3 4 2 7 5 5 1 3 4 10 9 8 9 9 12 12 14 15 15 14 14 14 14 14 13 12 13 12 11 10 10 12 12 12 12 12 11 11
4 3 1 1 1 4 3 1 4 4 6 8 7 8 3 3 1 1 7 8 10 10 8 9 9 11 13 14 13 13 13 14 14 13 13 13 13 13 13 12 12 12 14 14 14 14 13 13 13
3 0 2 2 2 4 3 6 6 6 12 3 5 3 3 2 5 2 7 12 11 10 9 10 9 10 13 13 13 13 13 13 14 14 14 14 15 16 16 16 16 16 18 18 18 18 18 17 17
2 3 3 2 4 3 0 12 7 12 7 6 3 3 5 1 6 8 14 13 12 11 9 11 10 12 12 13 13 13 14 14 15 16 17 17 16 16 16 16 16 17 17 18 17 17 17 17 17
2 1 2 3 1 1 2 12 14 11 3 7 9 5 3 3 8 14 15 13 12 11 10 11 9 11 13 13 14 15 16 16 17 17 17 17 16 15 15 16 16 17 17 17 17 17 17 17 16
2 2 2 2 0 1 3 12 12 9 5 4 8 7 4 5 10 14 13 12 11 12 11 11 10 11 13 14 16 17 18 18 17 17 16 16 15 15 15 15 16 16 16 15 15 16 15 15 15
2 1 3 3 1 2 4 14 13 11 4 7 4 10 4 8 9 12 12 11 10 11 11 11 13 14 14 15 16 16 17 17 16 16 15 15 15 15 14 12 12 13 14 14 13 14 13 13 13
2 2 5 3 3 1 4 13 9 13 7 2 6 5 6 13 15 13 12 11 10 10 11 12 13 13 13 14 14 16 16 16 15 15 15 15 14 12 12 8 12 12 13 13 12 11 11 11 9
1 2 2 5 6 1 2 7 8 4 4 6 8 3 4 20 17 14 13 11 10 9 10 12 14 13 12 14 13 14 17 16 15 13 12 8 7 8 9 11 11 11 11 11 12 12 12 12 10
1 0 2 3 5 3 5 10 10 8 11 13 8 4 17 20 18 18 17 15 15 14 14 14 13 14 13 10 10 10 9 8 8 8 8 6 7 6 6 8 9 9 10 9 11 12 12 12 10
3 1 2 3 7 5 7 8 8 8 13 18 20 15 21 20 19 19 18 18 17 16 11 12 10 8 10 8 6 4 4 5 5 7 6 5 4 4 4 4 5 5 7 7 10 10 9 12 11
3 5 4 1 1 6 8 6 8 16 14 19 15 19 21 22 21 21 18 15 13 13 13 10 8 6 5 5 4 5 4 5 4 5 4 3 3 4 4 4 5 5 6 9 9 8 12 13 14
2 5 3 8 2 6 6 11 6 19 10 6 13 18 23 21 21 16 15 13 12 12 8 7 5 5 5 5 5 4 5 4 5 4 4 4 4 4 4 4 4 5 7 8 9 10 11 13 14
4 6 10 2 2 3 7 6 6 14 14 8 17 21 21 22 22 16 14 15 14 11 8 7 6 5 4 5 6 5 5 5 4 4 5 5 3 3 4 4 6 7 7 8 10 11 11 12 13
3 7 5 9 6 2 2 4 9 6 14 14 17 19 19 20 18 16 16 11 9 9 13 10 7 5 5 7 6 4 4 4 4 4 4 4 4 5 5 6 7 7 8 10 9 11 11 12 12
3 2 5 8 13 4 3 4 7 15 9 17 16 13 14 13 14 12 12 13 14 9 8 7 5 5 5 4 4 3 4 2 3 3 2 4 5 5 4 5 6 7 8 8 8 10 11 11 12
5 2 4 2 8 5 3 6 17 13 9 12 9 11 12 12 12 12 13 15 13 15 10 8 6 6 7 8 4 5 3 2 4 3 3 4 4 6 5 5 6 8 7 7 8 9 11 11 11
1 1 1 3 7 10 6 8 11 13 2 2 5 8 11 13 10 11 14 15 15 14 11 8 8 9 7 5 4 4 4 2 3 3 1 3 4 6 5 6 7 7 7 8 9 11 10 11 10
3 2 2 2 5 3 5 6 12 9 11 7 2 7 8 10 12 13 14 16 16 12 12 11 10 8 4 2 3 3 7 4 4 3 3 5 6 7 6 7 8 7 8 10 10 10 11 10 11
4 2 5 1 4 3 2 6 5 13 11 9 8 6 8 11 12 14 16 13 13 13 14 12 9 6 1 2 3 3 7 5 6 3 3 5 7 8 9 9 8 9 10 10 10 10 8 8 8
3 5 4 4 5 2 4 4 3 5 9 10 12 6 7 9 12 15 15 11 12 12 12 9 8 10 8 7 4 3 5 5 4 4 5 6 8 9 9 10 8 9 8 8 9 10 10 7 10
3 3 3 4 5 9 3 7 1 6 8 12 11 9 7 10 12 13 16 14 11 8 5 1 5 5 2 4 4 4 6 6 3 5 5 7 7 8 8 8 9 9 7 8 8 8 7 8 8
4 5 4 4 5 4 2 5 3 4 4 7 8 7 8 9 12 13 12 9 8 4 3 4 2 2 2 4 3 4 5 3 4 4 7 8 7 7 8 8 9 8 7 7 7 8 8 7 6
1 4 2 1 1 5 3 4 0 2 4 2 6 7 9 12 13 12 12 10 9 9 7 7 6 5 6 4 4 4 4 6 6 8 8 8 8 7 7 9 8 7 7 7 7 9 10 9 8
9 9 8 3 4 5 2 5 3 1 3 1 7 10 11 11 12 11 11 8 8 9 9 7 8 7 6 5 5 5 6 7 8 9 8 9 7 7 7 8 7 6 8 9 8 9 10 8 7
6 4 6 9 6 11 3 4 3 3 6 11 12 10 11 11 10 11 10 9 8 9 9 8 9 8 8 7 6 5 7 6 7 7 8 7 7 7 8 8 8 8 9 8 7 7 6 7 6
2 3 2 3 2 5 2 1 4 4 7 8 9 10 11 10 10 10 8 8 8 9 10 11 10 8 8 9 9 9 9 9 8 9 7 6 8 7 8 8 8 9 8 7 7 6 7 7 7
4 2 2 2 6 9 3 5 6 7 8 7 7 9 10 10 10 9 8 9 9 8 8 10 10 10 10 9 8 7 7 7 8 8 9 9 9 9 9 9 8 7 6 6 6 5 6 6 5
3 4 4 1 3 5 8 5 3 6 7 8 8 10 10 8 7 7 8 7 8 10 11 11 10 9 8 7 7 8 8 8 8 8 8 8 9 8 8 7 7 6 6 6 5 5 5 7 6
2 2 3 3 4 4 5 7 9 7 5 10 11 10 7 7 6 5 6 12 11 11 10 9 7 7 6 7 8 8 8 8 8 8 9 8 8 8 7 7 6 6 5 6 6 6 5 5 7
Wind_Direction
101 136 196 219 194 78 106 118 276 182 139 101 154 194 155 140 167 72 120 120 129 123 122 129 129 128 118 109 105 103 100 98 97 95 92 88 84 83 77 69 59 57 53 47 41 33 26 19 13
124 120 191 108 50 96 122 220 204 107 93 117 97 93 349 225 201 264 146 148 138 131 134 134 134 125 115 107 101 99 100 97 93 91 90 86 79 71 65 62 59 55 52 48 42 37 31 26 20
140 205 282 57 88 72 134 186 147 127 138 140 134 233 200 211 181 180 132 152 144 135 142 134 131 118 114 110 104 99 93 89 88 83 82 80 73 69 67 65 64 64 61 54 51 47 40 33 30
167 155 119 51 81 105 341 167 154 144 175 229 211 207 182 306 166 163 150 149 143 142 146 128 134 123 114 107 102 97 89 89 86 83 85 80 74 70 66 68 61 57 54 50 46 43 38 30 26
45 194 104 88 31 302 160 176 170 170 171 181 192 155 122 50 120 138 148 154 148 142 142 137 131 120 108 106 99 95 96 96 91 85 85 81 79 74 73 71 64 57 49 47 42 37 32 25 19
161 265 173 119 309 297 144 174 188 206 210 160 183 165 117 144 145 149 149 152 147 145 142 138 122 107 104 104 104 103 99 100 99 94 91 88 80 75 74 71 65 58 51 43 39 34 27 22 15
218 144 111 123 179 228 159 165 187 193 227 218 155 156 126 180 155 149 146 145 150 147 143 139 130 118 110 111 114 113 110 107 103 100 95 88 84 82 75 73 66 57 49 40 31 24 20 18 14
136 96 146 135 167 110 134 171 195 198 209 92 176 188 175 178 154 148 151 149 150 155 147 141 143 135 134 131 121 115 114 109 104 99 93 89 85 78 77 70 52 46 35 29 23 15 7 3 359
173 150 147 140 189 128 148 197 159 208 196 187 192 196 157 145 148 149 156 156 156 160 154 153 150 150 138 132 125 121 115 110 103 97 90 94 74 71 66 57 47 40 27 20 14 5 356 347 334
223 54 187 193 177 219 202 213 162 179 197 210 193 113 142 150 163 169 173 171 175 170 166 164 163 156 148 143 138 119 108 95 99 100 86 79 70 63 61 52 44 31 18 13 359 350 336 325 328
167 309 209 268 244 217 210 214 186 186 205 212 203 164 162 164 174 182 183 182 178 172 164 167 158 158 157 139 125 109 113 114 97 87 82 86 95 75 54 38 24 8 17 356 346 337 334 328 320
254 251 250 331 254 168 183 176 197 194 214 218 205 170 171 175 181 187 182 180 174 165 168 166 161 145 132 132 130 116 111 112 116 83 88 93 72 62 43 28 11 4 2 351 350 340 332 324 318
261 327 324 306 297 194 172 197 206 219 222 200 181 172 184 186 185 180 180 173 167 169 150 138 111 122 128 131 122 126 128 122 104 108 79 54 52 45 26 29 10 358 352 352 342 336 328 319 314
328 305 312 1 115 183 162 175 209 229 216 195 180 188 192 191 185 169 170 174 171 151 140 113 119 109 110 117 124 130 123 120 121 94 64 58 39 30 21 11 4 356 350 344 336 333 322 315 312
336 340 344 30 5 15 240 188 222 323 200 196 201 199 191 194 180 178 184 163 144 127 133 142 118 125 122 124 133 139 132 119 109 101 71 37 25 25 0 355 349 349 341 332 332 325 318 311 309
24 84 350 40 3 59 300 273 23 341 201 215 207 197 191 181 174 173 151 132 121 107 96 97 108 116 127 100 86 75 57 55 54 58 52 26 12 9 345 337 338 345 327 329 328 324 318 313 314
16 359 331 64 39 336 338 341 342 341 263 229 213 192 175 149 163 152 135 127 136 132 117 104 109 101 64 47 19 38 31 4 12 343 4 11 350 347 336 330 332 329 321 326 328 322 316 312 312
328 5 327 341 22 35 67 26 5 10 19 197 183 182 153 164 155 118 131 127 124 116 112 106 90 65 49 28 358 347 295 9 294 254 296 339 341 336 330 323 322 318 321 327 330 321 324 315 314
126 102 340 334 26 86 74 72 37 27 35 19 234 189 143 142 129 138 126 120 119 121 115 90 77 49 39 29 289 326 303 278 233 233 353 348 357 336 328 325 326 327 326 327 320 321 318 315 316
135 86 27 252 26 235 135 58 47 36 28 2 325 253 159 133 134 134 125 124 130 119 110 109 119 124 93 292 271 315 294 315 301 360 341 19 346 336 334 337 334 335 321 324 326 327 318 308 333
69 27 358 326 343 88 311 221 57 34 47 33 30 58 79 121 128 134 130 127 122 127 134 123 132 187 179 224 278 279 272 255 281 344 344 351 339 340 345 336 331 323 315 325 322 330 325 316 314
34 343 292 303 303 307 343 307 43 10 36 44 37 44 85 118 131 142 143 133 130 133 99 196 170 233 221 256 247 253 272 291 338 332 335 321 336 339 337 329 329 330 322 318 323 332 314 314 311
21 15 357 324 291 299 117 265 91 357 19 38 44 59 85 108 128 131 127 108 93 86 335 301 37 79 328 315 314 295 292 317 333 329 320 319 313 324 343 348 342 333 319 325 324 313 324 316 303
291 273 290 126 251 255 51 318 247 3 357 39 75 84 103 104 87 80 67 61 51 51 49 49 60 54 47 44 50 30 359 350 337 334 317 320 322 327 352 353 347 325 324 330 323 322 320 314 306
350 329 315 289 289 301 58 250 354 346 357 64 124 81 68 79 72 70 71 66 73 66 58 58 39 34 15 12 7 354 358 340 325 323 321 321 331 334 336 334 322 318 319 320 317 321 326 324 314
343 322 304 305 303 309 170 237 95 35 89 97 91 92 81 78 83 88 79 69 54 38 29 27 27 14 359 357 342 351 352 333 317 320 328 325 313 308 315 299 303 312 319 323 323 327 326 311 319
37 340 358 279 217 265 314 157 174 143 123 116 100 93 93 100 98 88 74 48 32 26 18 15 11 2 357 353 352 346 347 340 330 319 302 291 296 300 292 301 304 309 315 322 337 340 336 328 358
31 80 279 1 298 300 281 289 297 214 195 152 127 114 114 112 92 67 42 27 14 9 354 11 6 356 350 347 344 338 326 313 310 302 295 292 292 292 296 296 293 301 314 324 322 343 9 358 358
66 50 44 311 286 297 306 304 18 308 238 171 136 128 114 90 69 51 37 19 13 356 358 4 355 347 341 335 329 316 314 314 306 300 303 303 299 297 295 297 299 302 306 323 313 341 354 358 5
78 75 49 339 309 289 291 286 358 339 147 139 131 122 100 72 29 28 19 15 1 354 348 338 332 331 335 326 316 315 317 315 313 313 312 305 300 307 303 303 300 304 318 331 321 322 341 345 347